This is the latest recevied weather packets stored in our database for station/object KE8WMS. If no packets are shown the sender has not sent any weather packets the latest 10 day(s).
| Time | Temp. | Humidity | Pressure | Rain* | Wind** | Luminosity | Snow |
|---|---|---|---|---|---|---|---|
| 1777389574 | 18.33° C | 81% | 1007.1 hPa | 0 mm | - | 206 W/m² | - |
| 1777389271 | 18.33° C | 81% | 1007.4 hPa | 0 mm | - | 265 W/m² | - |
| 1777388969 | 18.89° C | 80% | 1007.4 hPa | 0 mm | - | 246 W/m² | - |
| 1777388666 | 17.78° C | 82% | 1007.2 hPa | 0 mm | - | 670 W/m² | - |
| 1777388363 | 17.22° C | 83% | 1007.7 hPa | 0 mm | - | 853 W/m² | - |
| 1777388062 | 17.22° C | 83% | 1007.4 hPa | 0 mm | - | 324 W/m² | - |
| 1777387759 | 17.22° C | 83% | 1007.5 hPa | 0 mm | - | 129 W/m² | - |
| 1777387455 | 17.22° C | 83% | 1007 hPa | 0 mm | - | 192 W/m² | - |
| 1777387150 | 17.22° C | 82% | 1007.2 hPa | 0 mm | - | 219 W/m² | - |
| 1777386846 | 16.67° C | 83% | 1007.3 hPa | 0 mm | - | 225 W/m² | - |
| 1777386543 | 16.67° C | 84% | 1007.1 hPa | 0 mm | - | 136 W/m² | - |
| 1777386240 | 16.67° C | 84% | 1007 hPa | 0 mm | - | 161 W/m² | - |
| 1777385937 | 17.22° C | 83% | 1006.9 hPa | 0 mm | - | 162 W/m² | - |
| 1777385634 | 17.22° C | 81% | 1006.5 hPa | 0 mm | - | 148 W/m² | - |
| 1777385331 | 17.22° C | 81% | 1006.9 hPa | 0 mm | - | 263 W/m² | - |
| 1777385027 | 17.78° C | 80% | 1006.8 hPa | 0 mm | - | 433 W/m² | - |
| 1777384725 | 17.22° C | 81% | 1006.7 hPa | 0 mm | - | 623 W/m² | - |
| 1777384423 | 16.67° C | 82% | 1006.7 hPa | 0 mm | - | 421 W/m² | - |
| 1777384120 | 16.67° C | 83% | 1006.7 hPa | 0 mm | - | 226 W/m² | - |
| 1777383816 | 16.67° C | 83% | 1006.6 hPa | 0 mm | - | 224 W/m² | - |
| 1777383512 | 16.67° C | 84% | 1006.7 hPa | 0 mm | - | 175 W/m² | - |
| 1777383209 | 16.67° C | 83% | 1006.7 hPa | 0 mm | - | 217 W/m² | - |
| 1777382906 | 16.67° C | 83% | 1006.4 hPa | 0 mm | - | 210 W/m² | - |
| 1777382602 | 16.67° C | 83% | 1006.5 hPa | 0 mm | - | 157 W/m² | - |
| 1777382297 | 16.11° C | 84% | 1006.3 hPa | 0 mm | - | 156 W/m² | - |
* Rain latest hour (hover to see other rain measurements)
** Current wind speed in m/s (hover to see current wind gust speed)